| time (UTC) | temp F | wind direction | speed MPH | gust MPH | rain 1hr in | rain 24hr in | rain mn in | humidity % | barometer mb |
| 20260508102007 | 54 | 176 | 3.0 | 8.0 | 0.00 | 0.00 | 0.00 | 75 | 1012.9 |
| 20260508101534 | 54 | 133 | 3.0 | 8.0 | 0.00 | 0.00 | 0.00 | 75 | 1012.9 |
| 20260508101010 | 54 | 180 | 3.0 | 7.0 | 0.00 | 0.00 | 0.00 | 75 | 1012.7 |
| 20260508100503 | 54 | 168 | 3.0 | 9.0 | 0.00 | 0.00 | 0.00 | 75 | 1012.7 |
| 20260508100020 | 54 | 158 | 3.0 | 9.0 | 0.00 | 0.00 | 0.00 | 74 | 1012.7 |
| 20260508095504 | 54 | 183 | 4.0 | 8.0 | 0.00 | 0.00 | 0.00 | 74 | 1012.7 |
| 20260508095010 | 54 | 177 | 2.0 | 8.0 | 0.00 | 0.00 | 0.00 | 74 | 1012.7 |
| 20260508094519 | 54 | 163 | 2.0 | 4.0 | 0.00 | 0.00 | 0.00 | 74 | 1012.7 |
| 20260508094006 | 54 | 169 | 1.0 | 3.0 | 0.00 | 0.00 | 0.00 | 74 | 1012.7 |
| 20260508093510 | 54 | 161 | 1.0 | 4.0 | 0.00 | 0.00 | 0.00 | 74 | 1012.7 |
| 20260508093019 | 54 | 158 | 1.0 | 4.0 | 0.00 | 0.00 | 0.00 | 74 | 1012.6 |
| 20260508092503 | 54 | 173 | 1.0 | 3.0 | 0.00 | 0.00 | 0.00 | 74 | 1012.7 |
| 20260508092010 | 54 | 191 | 0.0 | 4.0 | 0.00 | 0.00 | 0.00 | 74 | 1012.7 |
| 20260508091513 | 54 | 185 | 1.0 | 4.0 | 0.00 | 0.00 | 0.00 | 75 | 1012.5 |
| 20260508091007 | 54 | 151 | 2.0 | 5.0 | 0.00 | 0.00 | 0.00 | 75 | 1012.7 |
| 20260508090507 | 53 | 170 | 1.0 | 6.0 | 0.00 | 0.00 | 0.00 | 75 | 1012.7 |
| 20260508090012 | 53 | 159 | 3.0 | 6.0 | 0.00 | 0.00 | 0.00 | 76 | 1012.8 |
| 20260508085507 | 53 | 166 | 1.0 | 2.0 | 0.00 | 0.00 | 0.00 | 76 | 1012.8 |
| 20260508085009 | 53 | 162 | 1.0 | 4.0 | 0.00 | 0.00 | 0.00 | 77 | 1012.9 |
| 20260508084509 | 53 | 162 | 1.0 | 4.0 | 0.00 | 0.00 | 0.00 | 77 | 1012.9 |
| 20260508084011 | 52 | 166 | 1.0 | 8.0 | 0.00 | 0.00 | 0.00 | 77 | 1012.8 |
| 20260508083507 | 52 | 169 | 1.0 | 8.0 | 0.00 | 0.00 | 0.00 | 77 | 1012.8 |
| 20260508083028 | 52 | 165 | 2.0 | 8.0 | 0.00 | 0.00 | 0.00 | 77 | 1012.9 |
| 20260508082508 | 53 | 160 | 0.0 | 0.0 | 0.00 | 0.00 | 0.00 | 77 | 1012.9 |
| 20260508082008 | 53 | 160 | 0.0 | 0.0 | 0.00 | 0.00 | 0.00 | 77 | 1012.9 |
| 20260508081522 | 53 | 160 | 0.0 | 0.0 | 0.00 | 0.00 | 0.00 | 77 | 1012.9 |
| 20260508081009 | 53 | 160 | 0.0 | 0.0 | 0.00 | 0.00 | 0.00 | 77 | 1013.0 |
| 20260508080507 | 53 | 160 | 0.0 | 0.0 | 0.00 | 0.00 | 0.00 | 76 | 1013.0 |
| 20260508080024 | 53 | 160 | 0.0 | 0.0 | 0.00 | 0.00 | 0.00 | 76 | 1013.1 |
| 20260508075507 | 53 | 160 | 0.0 | 0.0 | 0.00 | 0.00 | 0.00 | 76 | 1013.2 |
| 20260508075007 | 53 | 160 | 0.0 | 2.0 | 0.00 | 0.00 | 0.00 | 76 | 1013.2 |
| 20260508074522 | 53 | 160 | 0.0 | 2.0 | 0.00 | 0.00 | 0.00 | 75 | 1013.4 |
| 20260508074009 | 53 | 160 | 0.0 | 2.0 | 0.00 | 0.00 | 0.00 | 75 | 1013.4 |
| 20260508073509 | 54 | 160 | 0.0 | 0.0 | 0.00 | 0.00 | 0.00 | 74 | 1013.5 |
| 20260508073027 | 54 | 160 | 0.0 | 2.0 | 0.00 | 0.00 | 0.00 | 73 | 1013.5 |
| 20260508072510 | 54 | 160 | 0.0 | 2.0 | 0.00 | 0.00 | 0.00 | 72 | 1013.6 |
| 20260508072011 | 55 | 160 | 0.0 | 2.0 | 0.00 | 0.00 | 0.00 | 72 | 1013.7 |
| 20260508071521 | 55 | 160 | 0.0 | 2.0 | 0.00 | 0.00 | 0.00 | 71 | 1013.7 |
| 20260508071013 | 55 | 157 | 0.0 | 2.0 | 0.00 | 0.00 | 0.00 | 70 | 1013.8 |
| 20260508070512 | 56 | 157 | 0.0 | 2.0 | 0.00 | 0.00 | 0.00 | 70 | 1013.9 |
| 20260508070015 | 56 | 157 | 0.0 | 2.0 | 0.00 | 0.00 | 0.00 | 69 | 1014.0 |
| 20260508065507 | 56 | 157 | 0.0 | 2.0 | 0.00 | 0.00 | 0.00 | 68 | 1014.0 |
| 20260508065007 | 56 | 157 | 0.0 | 3.0 | 0.00 | 0.00 | 0.00 | 68 | 1014.0 |
| 20260508064535 | 56 | 156 | 1.0 | 3.0 | 0.00 | 0.00 | 0.00 | 68 | 1014.1 |
| 20260508064008 | 56 | 155 | 1.0 | 4.0 | 0.00 | 0.00 | 0.00 | 68 | 1014.0 |
| 20260508063507 | 57 | 157 | 1.0 | 4.0 | 0.00 | 0.00 | 0.00 | 67 | 1014.1 |
| 20260508063029 | 57 | 155 | 1.0 | 2.0 | 0.00 | 0.00 | 0.00 | 67 | 1014.1 |
| 20260508062513 | 57 | 155 | 0.0 | 3.0 | 0.00 | 0.00 | 0.00 | 67 | 1014.1 |
| 20260508062007 | 57 | 155 | 1.0 | 3.0 | 0.00 | 0.00 | 0.00 | 67 | 1014.1 |
| 20260508061531 | 57 | 155 | 1.0 | 2.0 | 0.00 | 0.00 | 0.00 | 67 | 1014.1 |
| 20260508061010 | 57 | 157 | 1.0 | 3.0 | 0.00 | 0.00 | 0.00 | 67 | 1014.2 |
| 20260508060508 | 57 | 159 | 1.0 | 3.0 | 0.00 | 0.00 | 0.00 | 67 | 1014.2 |
| 20260508060024 | 57 | 162 | 1.0 | 3.0 | 0.00 | 0.00 | 0.00 | 67 | 1014.2 |
| 20260508055505 | 57 | 157 | 0.0 | 4.0 | 0.00 | 0.00 | 0.00 | 67 | 1014.2 |
| 20260508055008 | 57 | 157 | 1.0 | 4.0 | 0.00 | 0.00 | 0.00 | 68 | 1014.2 |
| 20260508054525 | 57 | 165 | 2.0 | 4.0 | 0.00 | 0.00 | 0.00 | 67 | 1014.1 |
| 20260508054008 | 57 | 160 | 1.0 | 4.0 | 0.00 | 0.00 | 0.00 | 67 | 1014.1 |
| 20260508053511 | 57 | 167 | 1.0 | 3.0 | 0.00 | 0.00 | 0.00 | 67 | 1014.1 |
| 20260508053024 | 57 | 166 | 1.0 | 3.0 | 0.00 | 0.00 | 0.00 | 67 | 1014.2 |
| 20260508052508 | 57 | 149 | 1.0 | 3.0 | 0.00 | 0.00 | 0.00 | 67 | 1014.2 |
| 20260508052004 | 57 | 154 | 1.0 | 2.0 | 0.00 | 0.00 | 0.00 | 66 | 1014.3 |
| 20260508051520 | 57 | 150 | 1.0 | 2.0 | 0.00 | 0.00 | 0.00 | 66 | 1014.1 |
| 20260508051004 | 57 | 150 | 0.0 | 2.0 | 0.00 | 0.00 | 0.00 | 67 | 1014.2 |
| 20260508050504 | 57 | 150 | 1.0 | 2.0 | 0.00 | 0.00 | 0.00 | 67 | 1014.3 |
| 20260508050021 | 57 | 150 | 0.0 | 2.0 | 0.00 | 0.00 | 0.00 | 67 | 1014.3 |
| 20260508045504 | 57 | 150 | 0.0 | 3.0 | 0.00 | 0.00 | 0.00 | 67 | 1014.3 |
| 20260508045009 | 57 | 150 | 1.0 | 3.0 | 0.00 | 0.00 | 0.00 | 66 | 1014.2 |
| 20260508044516 | 57 | 150 | 1.0 | 2.0 | 0.00 | 0.00 | 0.00 | 66 | 1014.3 |
| 20260508044006 | 58 | 150 | 1.0 | 2.0 | 0.00 | 0.00 | 0.00 | 65 | 1014.3 |
| 20260508043508 | 58 | 150 | 0.0 | 2.0 | 0.00 | 0.00 | 0.00 | 65 | 1014.4 |
| 20260508043014 | 58 | 150 | 1.0 | 2.0 | 0.00 | 0.00 | 0.00 | 64 | 1014.5 |
| 20260508042504 | 59 | 150 | 1.0 | 2.0 | 0.00 | 0.00 | 0.00 | 63 | 1014.5 |
| 20260508042009 | 59 | 150 | 1.0 | 3.0 | 0.00 | 0.00 | 0.00 | 63 | 1014.5 |
| 20260508041509 | 59 | 150 | 1.0 | 3.0 | 0.00 | 0.00 | 0.00 | 62 | 1014.4 |
| 20260508041011 | 59 | 150 | 2.0 | 3.0 | 0.00 | 0.00 | 0.00 | 62 | 1014.5 |
| 20260508040507 | 59 | 158 | 1.0 | 2.0 | 0.00 | 0.00 | 0.00 | 62 | 1014.5 |
| 20260508040014 | 59 | 158 | 1.0 | 3.0 | 0.00 | 0.00 | 0.00 | 61 | 1014.4 |
| 20260508035508 | 60 | 158 | 1.0 | 3.0 | 0.00 | 0.00 | 0.00 | 61 | 1014.4 |
| 20260508035004 | 60 | 158 | 1.0 | 3.0 | 0.00 | 0.00 | 0.00 | 61 | 1014.4 |
| 20260508034504 | 60 | 162 | 1.0 | 3.0 | 0.00 | 0.00 | 0.00 | 60 | 1014.5 |
| 20260508034006 | 60 | 162 | 1.0 | 3.0 | 0.00 | 0.00 | 0.00 | 60 | 1014.6 |
| 20260508033505 | 60 | 162 | 1.0 | 3.0 | 0.00 | 0.00 | 0.00 | 60 | 1014.6 |
| 20260508033025 | 60 | 160 | 1.0 | 3.0 | 0.00 | 0.00 | 0.00 | 59 | 1014.6 |
| 20260508032505 | 60 | 152 | 2.0 | 3.0 | 0.00 | 0.00 | 0.00 | 59 | 1014.6 |
| 20260508032005 | 61 | 150 | 0.0 | 3.0 | 0.00 | 0.00 | 0.00 | 58 | 1014.6 |
| 20260508031527 | 61 | 150 | 1.0 | 3.0 | 0.00 | 0.00 | 0.00 | 58 | 1014.5 |
| 20260508031007 | 61 | 156 | 1.0 | 2.0 | 0.00 | 0.00 | 0.00 | 57 | 1014.6 |
| 20260508030504 | 61 | 156 | 0.0 | 3.0 | 0.00 | 0.00 | 0.00 | 56 | 1014.6 |
| 20260508030017 | 61 | 156 | 1.0 | 3.0 | 0.00 | 0.00 | 0.00 | 55 | 1014.5 |
| 20260508025504 | 61 | 159 | 1.0 | 2.0 | 0.00 | 0.00 | 0.00 | 55 | 1014.5 |
| 20260508025009 | 62 | 159 | 0.0 | 3.0 | 0.00 | 0.00 | 0.00 | 54 | 1014.5 |
| 20260508024516 | 62 | 159 | 1.0 | 2.0 | 0.00 | 0.00 | 0.00 | 54 | 1014.5 |
| 20260508024005 | 62 | 160 | 1.0 | 2.0 | 0.00 | 0.00 | 0.00 | 53 | 1014.4 |
| 20260508023508 | 63 | 160 | 0.0 | 3.0 | 0.00 | 0.00 | 0.00 | 53 | 1014.4 |
| 20260508023024 | 63 | 160 | 1.0 | 3.0 | 0.00 | 0.00 | 0.00 | 52 | 1014.4 |
| 20260508022505 | 63 | 158 | 0.0 | 3.0 | 0.00 | 0.00 | 0.00 | 52 | 1014.4 |
| 20260508022007 | 63 | 159 | 1.0 | 3.0 | 0.00 | 0.00 | 0.00 | 52 | 1014.3 |
| 20260508021515 | 64 | 159 | 1.0 | 3.0 | 0.00 | 0.00 | 0.00 | 51 | 1014.3 |
| 20260508021012 | 64 | 151 | 1.0 | 3.0 | 0.00 | 0.00 | 0.00 | 51 | 1014.2 |
| 20260508020508 | 64 | 151 | 0.0 | 3.0 | 0.00 | 0.00 | 0.00 | 50 | 1014.2 |
| 20260508020010 | 64 | 149 | 1.0 | 3.0 | 0.00 | 0.00 | 0.00 | 50 | 1014.3 |
| 20260508015509 | 64 | 149 | 1.0 | 4.0 | 0.00 | 0.00 | 0.00 | 49 | 1014.2 |
| 20260508015007 | 65 | 148 | 1.0 | 4.0 | 0.00 | 0.00 | 0.00 | 49 | 1014.1 |
| 20260508014517 | 65 | 174 | 2.0 | 4.0 | 0.00 | 0.00 | 0.00 | 49 | 1014.2 |
| 20260508014011 | 65 | 167 | 1.0 | 4.0 | 0.00 | 0.00 | 0.00 | 48 | 1014.1 |
| 20260508013504 | 66 | 175 | 2.0 | 4.0 | 0.00 | 0.00 | 0.00 | 47 | 1014.1 |
| 20260508013026 | 66 | 164 | 2.0 | 4.0 | 0.00 | 0.00 | 0.00 | 47 | 1014.0 |
| 20260508012509 | 66 | 169 | 1.0 | 2.0 | 0.00 | 0.00 | 0.00 | 47 | 1013.9 |
| 20260508012006 | 67 | 169 | 1.0 | 3.0 | 0.00 | 0.00 | 0.00 | 47 | 1013.8 |
| 20260508011523 | 67 | 169 | 0.0 | 3.0 | 0.00 | 0.00 | 0.00 | 46 | 1013.8 |
| 20260508011007 | 67 | 169 | 0.0 | 2.0 | 0.00 | 0.00 | 0.00 | 45 | 1013.7 |
| 20260508010511 | 68 | 169 | 1.0 | 2.0 | 0.00 | 0.00 | 0.00 | 44 | 1013.6 |
| 20260508010027 | 68 | 169 | 1.0 | 3.0 | 0.00 | 0.00 | 0.00 | 43 | 1013.7 |
| 20260508005508 | 68 | 173 | 2.0 | 3.0 | 0.00 | 0.00 | 0.00 | 43 | 1013.6 |
| 20260508005008 | 69 | 191 | 1.0 | 4.0 | 0.00 | 0.00 | 0.00 | 42 | 1013.6 |
| 20260508004524 | 69 | 200 | 1.0 | 5.0 | 0.00 | 0.00 | 0.00 | 41 | 1013.6 |
| 20260508004008 | 69 | 169 | 3.0 | 5.0 | 0.00 | 0.00 | 0.00 | 40 | 1013.6 |
| 20260508003511 | 69 | 206 | 0.0 | 4.0 | 0.00 | 0.00 | 0.00 | 40 | 1013.6 |
| 20260508003034 | 70 | 206 | 2.0 | 8.0 | 0.00 | 0.00 | 0.00 | 39 | 1013.6 |
| 20260508002508 | 70 | 156 | 3.0 | 9.0 | 0.00 | 0.00 | 0.00 | 38 | 1013.7 |
| 20260508002012 | 70 | 219 | 4.0 | 9.0 | 0.00 | 0.00 | 0.00 | 39 | 1013.7 |
| 20260508001515 | 70 | 181 | 3.0 | 9.0 | 0.00 | 0.00 | 0.00 | 39 | 1013.7 |
| 20260508001010 | 70 | 142 | 3.0 | 9.0 | 0.00 | 0.00 | 0.00 | 39 | 1013.8 |
| 20260508000513 | 71 | 160 | 2.0 | 10.0 | 0.00 | 0.00 | 0.00 | 39 | 1013.8 |
| 20260508000027 | 71 | 146 | 6.0 | 12.0 | 0.00 | 0.00 | 0.00 | 38 | 1013.9 |
| 20260507235512 | 71 | 160 | 5.0 | 12.0 | 0.00 | 0.00 | 0.00 | 38 | 1013.9 |
| 20260507235007 | 71 | 248 | 3.0 | 9.0 | 0.00 | 0.00 | 0.00 | 37 | 1013.9 |
| 20260507234528 | 71 | 179 | 4.0 | 9.0 | 0.00 | 0.00 | 0.00 | 37 | 1013.9 |
| 20260507234007 | 71 | 193 | 2.0 | 12.0 | 0.00 | 0.00 | 0.00 | 39 | 1014.0 |
| 20260507233506 | 72 | 183 | 4.0 | 12.0 | 0.00 | 0.00 | 0.00 | 37 | 1014.0 |
| 20260507233032 | 72 | 224 | 3.0 | 11.0 | 0.00 | 0.00 | 0.00 | 36 | 1014.0 |
| 20260507232507 | 72 | 179 | 3.0 | 11.0 | 0.00 | 0.00 | 0.00 | 36 | 1014.1 |
| 20260507232004 | 72 | 187 | 5.0 | 11.0 | 0.00 | 0.00 | 0.00 | 35 | 1014.1 |
| 20260507231524 | 73 | 233 | 3.0 | 9.0 | 0.00 | 0.00 | 0.00 | 35 | 1014.2 |
| 20260507231014 | 73 | 163 | 3.0 | 9.0 | 0.00 | 0.00 | 0.00 | 35 | 1014.2 |
| 20260507230512 | 74 | 215 | 3.0 | 9.0 | 0.00 | 0.00 | 0.00 | 35 | 1014.2 |
| 20260507230022 | 74 | 175 | 1.0 | 9.0 | 0.00 | 0.00 | 0.00 | 35 | 1014.2 |
| 20260507225512 | 74 | 175 | 3.0 | 9.0 | 0.00 | 0.00 | 0.00 | 34 | 1014.3 |
| 20260507225010 | 74 | 201 | 2.0 | 9.0 | 0.00 | 0.00 | 0.00 | 35 | 1014.4 |
| 20260507224507 | 74 | 202 | 4.0 | 10.0 | 0.00 | 0.00 | 0.00 | 34 | 1014.4 |
| 20260507224006 | 74 | 166 | 3.0 | 10.0 | 0.00 | 0.00 | 0.00 | 35 | 1014.4 |
| 20260507223503 | 74 | 157 | 5.0 | 10.0 | 0.00 | 0.00 | 0.00 | 35 | 1014.3 |
| 20260507223004 | 74 | 179 | 7.0 | 10.0 | 0.00 | 0.00 | 0.00 | 34 | 1014.3 |
| 20260507222506 | 75 | 191 | 3.0 | 8.0 | 0.00 | 0.00 | 0.00 | 34 | 1014.4 |
| 20260507222007 | 75 | 175 | 1.0 | 7.0 | 0.00 | 0.00 | 0.00 | 36 | 1014.4 |
| 20260507221518 | 75 | 221 | 1.0 | 7.0 | 0.00 | 0.00 | 0.00 | 33 | 1014.4 |
| 20260507221007 | 75 | 279 | 2.0 | 7.0 | 0.00 | 0.00 | 0.00 | 34 | 1014.5 |
| 20260507220508 | 75 | 262 | 1.0 | 5.0 | 0.00 | 0.00 | 0.00 | 35 | 1014.4 |
| 20260507220015 | 74 | 196 | 2.0 | 6.0 | 0.00 | 0.00 | 0.00 | 35 | 1014.5 |
| 20260507215504 | 74 | 218 | 3.0 | 10.0 | 0.00 | 0.00 | 0.00 | 34 | 1014.5 |
| 20260507215004 | 73 | 223 | 5.0 | 9.0 | 0.00 | 0.00 | 0.00 | 35 | 1014.5 |
| 20260507214512 | 73 | 208 | 4.0 | 9.0 | 0.00 | 0.00 | 0.00 | 36 | 1014.5 |
| 20260507214003 | 73 | 204 | 4.0 | 11.0 | 0.00 | 0.00 | 0.00 | 36 | 1014.6 |
| 20260507213507 | 73 | 194 | 3.0 | 11.0 | 0.00 | 0.00 | 0.00 | 36 | 1014.7 |
| 20260507213011 | 73 | 212 | 5.0 | 11.0 | 0.00 | 0.00 | 0.00 | 36 | 1014.7 |
| 20260507212503 | 73 | 194 | 4.0 | 9.0 | 0.00 | 0.00 | 0.00 | 36 | 1014.7 |
| 20260507212006 | 73 | 257 | 4.0 | 6.0 | 0.00 | 0.00 | 0.00 | 36 | 1014.9 |
| 20260507211505 | 73 | 233 | 0.0 | 11.0 | 0.00 | 0.00 | 0.00 | 38 | 1015.0 |
| 20260507211003 | 73 | 319 | 4.0 | 11.0 | 0.00 | 0.00 | 0.00 | 39 | 1015.1 |
| 20260507210507 | 73 | 261 | 7.0 | 11.0 | 0.00 | 0.00 | 0.00 | 37 | 1015.2 |
| 20260507210005 | 73 | 270 | 3.0 | 8.0 | 0.00 | 0.00 | 0.00 | 38 | 1015.3 |
| 20260507205510 | 73 | 270 | 3.0 | 9.0 | 0.00 | 0.00 | 0.00 | 37 | 1015.5 |
| 20260507205005 | 73 | 196 | 4.0 | 10.0 | 0.00 | 0.00 | 0.00 | 39 | 1015.6 |
| 20260507204504 | 72 | 335 | 1.0 | 10.0 | 0.00 | 0.00 | 0.00 | 39 | 1015.5 |
| 20260507204007 | 73 | 223 | 4.0 | 13.0 | 0.00 | 0.00 | 0.00 | 38 | 1015.7 |
| 20260507203504 | 72 | 205 | 5.0 | 13.0 | 0.00 | 0.00 | 0.00 | 38 | 1015.8 |
| 20260507203011 | 72 | 239 | 6.0 | 13.0 | 0.00 | 0.00 | 0.00 | 40 | 1015.8 |
| 20260507202507 | 73 | 197 | 4.0 | 10.0 | 0.00 | 0.00 | 0.00 | 36 | 1015.8 |
| 20260507202003 | 73 | 250 | 3.0 | 10.0 | 0.00 | 0.00 | 0.00 | 39 | 1015.9 |
| 20260507201520 | 73 | 294 | 2.0 | 9.0 | 0.00 | 0.00 | 0.00 | 38 | 1015.9 |
| 20260507201004 | 72 | 262 | 2.0 | 9.0 | 0.00 | 0.00 | 0.00 | 39 | 1015.9 |
| 20260507200504 | 72 | 225 | 5.0 | 10.0 | 0.00 | 0.00 | 0.00 | 37 | 1016.0 |
| 20260507200018 | 71 | 279 | 2.0 | 12.0 | 0.00 | 0.00 | 0.00 | 40 | 1016.0 |
| 20260507195511 | 71 | 280 | 4.0 | 12.0 | 0.00 | 0.00 | 0.00 | 39 | 1016.1 |
| 20260507195003 | 71 | 285 | 6.0 | 13.0 | 0.00 | 0.00 | 0.00 | 41 | 1016.2 |
| 20260507194516 | 70 | 205 | 7.0 | 12.0 | 0.00 | 0.00 | 0.00 | 38 | 1016.2 |
| 20260507194004 | 70 | 190 | 3.0 | 10.0 | 0.00 | 0.00 | 0.00 | 37 | 1016.3 |
| 20260507193509 | 71 | 212 | 4.0 | 11.0 | 0.00 | 0.00 | 0.00 | 37 | 1016.4 |
| 20260507193012 | 71 | 323 | 4.0 | 13.0 | 0.00 | 0.00 | 0.00 | 39 | 1016.5 |
| 20260507192510 | 71 | 285 | 7.0 | 14.0 | 0.00 | 0.00 | 0.00 | 43 | 1016.5 |
| 20260507192011 | 70 | 187 | 5.0 | 14.0 | 0.00 | 0.00 | 0.00 | 42 | 1016.5 |
| 20260507191512 | 70 | 149 | 6.0 | 14.0 | 0.00 | 0.00 | 0.00 | 39 | 1016.6 |
| 20260507191007 | 70 | 211 | 1.0 | 13.0 | 0.00 | 0.00 | 0.00 | 43 | 1016.7 |
| 20260507190507 | 70 | 223 | 7.0 | 13.0 | 0.00 | 0.00 | 0.00 | 40 | 1016.9 |
| 20260507190010 | 69 | 206 | 6.0 | 16.0 | 0.00 | 0.00 | 0.00 | 50 | 1017.0 |
| 20260507185507 | 69 | 235 | 7.0 | 16.0 | 0.00 | 0.00 | 0.00 | 41 | 1017.1 |
| 20260507185007 | 68 | 164 | 5.0 | 12.0 | 0.00 | 0.00 | 0.00 | 44 | 1017.2 |
| 20260507184511 | 68 | 194 | 8.0 | 12.0 | 0.00 | 0.00 | 0.00 | 41 | 1017.3 |
| 20260507184007 | 68 | 212 | 5.0 | 7.0 | 0.00 | 0.00 | 0.00 | 43 | 1017.2 |
| 20260507183508 | 68 | 128 | 1.0 | 8.0 | 0.00 | 0.00 | 0.00 | 44 | 1017.3 |
| 20260507183026 | 68 | 178 | 3.0 | 10.0 | 0.00 | 0.00 | 0.00 | 45 | 1017.4 |
| 20260507182506 | 68 | 152 | 5.0 | 10.0 | 0.00 | 0.00 | 0.00 | 41 | 1017.5 |
| 20260507182007 | 68 | 262 | 3.0 | 10.0 | 0.00 | 0.00 | 0.00 | 41 | 1017.6 |
| 20260507181523 | 68 | 252 | 5.0 | 12.0 | 0.00 | 0.00 | 0.00 | 43 | 1017.6 |
| 20260507181010 | 68 | 214 | 4.0 | 12.0 | 0.00 | 0.00 | 0.00 | 40 | 1017.8 |
| 20260507180504 | 68 | 299 | 3.0 | 8.0 | 0.00 | 0.00 | 0.00 | 42 | 1017.9 |
| 20260507180019 | 68 | 279 | 1.0 | 11.0 | 0.00 | 0.00 | 0.00 | 40 | 1018.0 |
| 20260507175509 | 68 | 251 | 4.0 | 11.0 | 0.00 | 0.00 | 0.00 | 39 | 1018.0 |
| 20260507175007 | 68 | 216 | 2.0 | 8.0 | 0.00 | 0.00 | 0.00 | 42 | 1018.1 |
| 20260507174517 | 68 | 198 | 3.0 | 7.0 | 0.00 | 0.00 | 0.00 | 40 | 1018.1 |
| 20260507174004 | 68 | 164 | 3.0 | 13.0 | 0.00 | 0.00 | 0.00 | 39 | 1018.1 |
| 20260507173508 | 67 | 107 | 3.0 | 13.0 | 0.00 | 0.00 | 0.00 | 42 | 1018.4 |
| 20260507173016 | 67 | 148 | 6.0 | 11.0 | 0.00 | 0.00 | 0.00 | 42 | 1018.4 |
| 20260507172505 | 66 | 177 | 2.0 | 10.0 | 0.00 | 0.00 | 0.00 | 45 | 1018.4 |
| 20260507172009 | 68 | 145 | 4.0 | 10.0 | 0.00 | 0.00 | 0.00 | 45 | 1018.5 |
| 20260507171512 | 67 | 257 | 3.0 | 8.0 | 0.00 | 0.00 | 0.00 | 41 | 1018.6 |
| 20260507171010 | 66 | 279 | 2.0 | 10.0 | 0.00 | 0.00 | 0.00 | 44 | 1018.8 |
| 20260507170507 | 66 | 202 | 4.0 | 10.0 | 0.00 | 0.00 | 0.00 | 42 | 1018.8 |
| 20260507170011 | 67 | 208 | 3.0 | 10.0 | 0.00 | 0.00 | 0.00 | 42 | 1018.8 |
| 20260507165510 | 67 | 240 | 4.0 | 7.0 | 0.00 | 0.00 | 0.00 | 43 | 1018.9 |
| 20260507165007 | 67 | 275 | 2.0 | 7.0 | 0.00 | 0.00 | 0.00 | 45 | 1018.9 |
| 20260507164511 | 66 | 177 | 3.0 | 7.0 | 0.00 | 0.00 | 0.00 | 43 | 1019.0 |
| 20260507164007 | 66 | 181 | 1.0 | 11.0 | 0.00 | 0.00 | 0.00 | 43 | 1019.0 |
| 20260507163507 | 66 | 262 | 4.0 | 12.0 | 0.00 | 0.00 | 0.00 | 43 | 1019.2 |
| 20260507163027 | 66 | 150 | 6.0 | 12.0 | 0.00 | 0.00 | 0.00 | 46 | 1019.3 |
| 20260507162508 | 65 | 126 | 3.0 | 8.0 | 0.00 | 0.00 | 0.00 | 43 | 1019.3 |
| 20260507162007 | 66 | 354 | 2.0 | 6.0 | 0.00 | 0.00 | 0.00 | 42 | 1019.3 |
| 20260507161524 | 65 | 218 | 2.0 | 10.0 | 0.00 | 0.00 | 0.00 | 46 | 1019.4 |
| 20260507161006 | 65 | 213 | 5.0 | 10.0 | 0.00 | 0.00 | 0.00 | 43 | 1019.4 |
| 20260507160505 | 64 | 163 | 1.0 | 6.0 | 0.00 | 0.00 | 0.00 | 43 | 1019.4 |
| 20260507160024 | 64 | 185 | 2.0 | 5.0 | 0.00 | 0.00 | 0.00 | 42 | 1019.5 |
| 20260507155512 | 64 | 158 | 2.0 | 8.0 | 0.00 | 0.00 | 0.00 | 44 | 1019.5 |
| 20260507155012 | 64 | 262 | 3.0 | 8.0 | 0.00 | 0.00 | 0.00 | 44 | 1019.6 |
| 20260507154522 | 64 | 192 | 1.0 | 8.0 | 0.00 | 0.00 | 0.00 | 49 | 1019.5 |
| 20260507154009 | 64 | 197 | 4.0 | 8.0 | 0.00 | 0.00 | 0.00 | 49 | 1019.6 |
| 20260507153509 | 63 | 196 | 3.0 | 7.0 | 0.00 | 0.00 | 0.00 | 48 | 1019.6 |
| 20260507153025 | 64 | 194 | 1.0 | 9.0 | 0.00 | 0.00 | 0.00 | 48 | 1019.7 |
| 20260507152503 | 63 | 133 | 3.0 | 9.0 | 0.00 | 0.00 | 0.00 | 48 | 1019.8 |
| 20260507152010 | 63 | 116 | 3.0 | 7.0 | 0.00 | 0.00 | 0.00 | 51 | 1019.8 |
| 20260507151516 | 62 | 171 | 3.0 | 6.0 | 0.00 | 0.00 | 0.00 | 51 | 1019.9 |
| 20260507151012 | 62 | 175 | 3.0 | 8.0 | 0.00 | 0.00 | 0.00 | 49 | 1020.1 |
| 20260507150508 | 62 | 152 | 3.0 | 8.0 | 0.00 | 0.00 | 0.00 | 53 | 1020.1 |
| 20260507150028 | 61 | 119 | 3.0 | 6.0 | 0.00 | 0.00 | 0.00 | 52 | 1020.2 |
| 20260507145510 | 60 | 107 | 3.0 | 8.0 | 0.00 | 0.00 | 0.00 | 51 | 1020.4 |
| 20260507145006 | 60 | 146 | 4.0 | 8.0 | 0.00 | 0.00 | 0.00 | 51 | 1020.4 |
| 20260507144531 | 60 | 204 | 4.0 | 7.0 | 0.00 | 0.00 | 0.00 | 50 | 1020.4 |
| 20260507144008 | 59 | 152 | 3.0 | 7.0 | 0.00 | 0.00 | 0.00 | 51 | 1020.5 |
| 20260507143506 | 59 | 155 | 3.0 | 7.0 | 0.00 | 0.00 | 0.00 | 50 | 1020.3 |
| 20260507143031 | 60 | 211 | 3.0 | 7.0 | 0.00 | 0.00 | 0.00 | 51 | 1020.3 |
| 20260507142509 | 60 | 160 | 1.0 | 5.0 | 0.00 | 0.00 | 0.00 | 52 | 1020.3 |
| 20260507142007 | 59 | 126 | 2.0 | 7.0 | 0.00 | 0.00 | 0.00 | 53 | 1020.3 |
| 20260507141527 | 58 | 151 | 2.0 | 7.0 | 0.00 | 0.00 | 0.00 | 54 | 1020.3 |
| 20260507141008 | 57 | 137 | 3.0 | 7.0 | 0.00 | 0.00 | 0.00 | 56 | 1020.2 |
| 20260507140507 | 57 | 180 | 1.0 | 8.0 | 0.00 | 0.00 | 0.00 | 58 | 1020.3 |
| 20260507140027 | 56 | 194 | 1.0 | 8.0 | 0.00 | 0.00 | 0.00 | 60 | 1020.2 |
| 20260507135506 | 55 | 174 | 2.0 | 5.0 | 0.00 | 0.00 | 0.00 | 61 | 1020.2 |
| 20260507135010 | 55 | 199 | 2.0 | 4.0 | 0.00 | 0.00 | 0.00 | 63 | 1020.2 |
| 20260507134503 | 55 | 148 | 1.0 | 6.0 | 0.00 | 0.00 | 0.00 | 63 | 1020.2 |
| 20260507134006 | 54 | 204 | 3.0 | 6.0 | 0.00 | 0.00 | 0.00 | 64 | 1020.1 |
| 20260507133515 | 54 | 151 | 3.0 | 5.0 | 0.00 | 0.00 | 0.00 | 67 | 1020.0 |
| 20260507133003 | 53 | 171 | 2.0 | 4.0 | 0.00 | 0.00 | 0.00 | 71 | 1020.0 |
| 20260507132507 | 52 | 194 | 1.0 | 3.0 | 0.00 | 0.00 | 0.00 | 76 | 1020.1 |
| 20260507132006 | 51 | 29 | 0.0 | 2.0 | 0.00 | 0.00 | 0.00 | 83 | 1020.1 |
| 20260507131525 | 50 | 63 | 0.0 | 2.0 | 0.00 | 0.00 | 0.00 | 84 | 1020.1 |
| 20260507131009 | 49 | 48 | 0.0 | 2.0 | 0.00 | 0.00 | 0.00 | 86 | 1020.0 |
| 20260507130504 | 49 | 48 | 0.0 | 2.0 | 0.00 | 0.00 | 0.00 | 87 | 1019.9 |
| 20260507130017 | 48 | 47 | 0.0 | 2.0 | 0.00 | 0.00 | 0.00 | 88 | 1020.0 |
| 20260507125507 | 47 | 47 | 0.0 | 2.0 | 0.00 | 0.00 | 0.00 | 89 | 1019.9 |
| 20260507125003 | 46 | 47 | 0.0 | 2.0 | 0.00 | 0.00 | 0.00 | 89 | 1019.8 |
| 20260507124532 | 46 | 47 | 0.0 | 2.0 | 0.00 | 0.00 | 0.00 | 88 | 1019.8 |
| 20260507124014 | 45 | 46 | 0.0 | 0.0 | 0.00 | 0.00 | 0.00 | 88 | 1019.8 |
| 20260507123509 | 44 | 46 | 0.0 | 0.0 | 0.00 | 0.00 | 0.00 | 88 | 1019.8 |
| 20260507123021 | 44 | 44 | 0.0 | 0.0 | 0.00 | 0.00 | 0.00 | 88 | 1019.8 |
| 20260507122502 | 44 | 44 | 0.0 | 1.0 | 0.00 | 0.00 | 0.00 | 88 | 1019.7 |
| 20260507122009 | 43 | 44 | 0.0 | 2.0 | 0.00 | 0.00 | 0.00 | 88 | 1019.7 |
| 20260507121508 | 43 | 329 | 0.0 | 2.0 | 0.00 | 0.00 | 0.00 | 87 | 1019.6 |
| 20260507121007 | 43 | 324 | 0.0 | 0.0 | 0.00 | 0.00 | 0.00 | 87 | 1019.5 |
| 20260507120509 | 43 | 324 | 0.0 | 0.0 | 0.00 | 0.00 | 0.00 | 87 | 1019.4 |
| 20260507120009 | 43 | 324 | 0.0 | 0.0 | 0.00 | 0.00 | 0.00 | 87 | 1019.4 |
| 20260507115509 | 43 | 324 | 0.0 | 0.0 | 0.00 | 0.00 | 0.00 | 87 | 1019.4 |
| 20260507115009 | 43 | 324 | 0.0 | 0.0 | 0.00 | 0.00 | 0.00 | 86 | 1019.3 |
| 20260507114507 | 43 | 324 | 0.0 | 0.0 | 0.00 | 0.00 | 0.00 | 86 | 1019.3 |
| 20260507114009 | 43 | 324 | 0.0 | 0.0 | 0.00 | 0.00 | 0.00 | 86 | 1019.2 |
| 20260507113504 | 43 | 324 | 0.0 | 0.0 | 0.00 | 0.00 | 0.00 | 86 | 1019.2 |
| 20260507113004 | 43 | 324 | 0.0 | 0.0 | 0.00 | 0.00 | 0.00 | 86 | 1019.2 |
| 20260507112507 | 43 | 324 | 0.0 | 0.0 | 0.00 | 0.00 | 0.00 | 86 | 1019.2 |
| 20260507112007 | 43 | 324 | 0.0 | 0.0 | 0.00 | 0.00 | 0.00 | 85 | 1019.2 |
| 20260507111524 | 43 | 324 | 0.0 | 0.0 | 0.00 | 0.00 | 0.00 | 85 | 1019.2 |
| 20260507111009 | 43 | 324 | 0.0 | 0.0 | 0.00 | 0.00 | 0.00 | 85 | 1019.1 |
| 20260507110503 | 43 | 324 | 0.0 | 0.0 | 0.00 | 0.00 | 0.00 | 85 | 1019.0 |
| 20260507110020 | 44 | 324 | 0.0 | 0.0 | 0.00 | 0.00 | 0.00 | 85 | 1019.1 |
| 20260507105506 | 44 | 324 | 0.0 | 0.0 | 0.00 | 0.00 | 0.00 | 85 | 1019.1 |
| 20260507105010 | 44 | 324 | 0.0 | 0.0 | 0.00 | 0.00 | 0.00 | 85 | 1019.1 |
| 20260507104525 | 44 | 324 | 0.0 | 0.0 | 0.00 | 0.00 | 0.00 | 85 | 1019.1 |
| 20260507104004 | 44 | 324 | 0.0 | 0.0 | 0.00 | 0.00 | 0.00 | 85 | 1019.1 |
| 20260507103507 | 44 | 324 | 0.0 | 0.0 | 0.00 | 0.00 | 0.00 | 84 | 1019.0 |
| 20260507103022 | 44 | 324 | 0.0 | 0.0 | 0.00 | 0.00 | 0.00 | 84 | 1019.0 |
| 20260507102503 | 44 | 324 | 0.0 | 0.0 | 0.00 | 0.00 | 0.00 | 84 | 1019.1 |